| time (UTC) | temp F | wind direction | speed MPH | gust MPH | rain 1hr in | rain 24hr in | rain mn in | humidity % | barometer mb |
| 20260506092649 | 50 | 0 | 0.0 | 0.0 | 0.00 | 0.01 | 0.00 | 87 | 1017.9 |
| 20260506091949 | 51 | 0 | 0.0 | 0.0 | 0.00 | 0.01 | 0.00 | 87 | 1018.0 |
| 20260506091249 | 50 | 0 | 0.0 | 2.0 | 0.00 | 0.01 | 0.00 | 87 | 1017.9 |
| 20260506090549 | 50 | 0 | 1.0 | 2.0 | 0.00 | 0.01 | 0.00 | 88 | 1018.0 |
| 20260506085849 | 50 | 309 | 0.0 | 0.0 | 0.00 | 0.01 | 0.00 | 88 | 1017.9 |
| 20260506084958 | 50 | 289 | 0.0 | 0.0 | 0.00 | 0.02 | 0.00 | 88 | 1017.9 |
| 20260506084258 | 50 | 270 | 0.0 | 2.0 | 0.00 | 0.02 | 0.00 | 88 | 1018.0 |
| 20260506083557 | 50 | 270 | 1.0 | 2.0 | 0.00 | 0.02 | 0.00 | 88 | 1018.0 |
| 20260506082857 | 50 | 256 | 1.0 | 3.0 | 0.00 | 0.02 | 0.00 | 88 | 1018.0 |
| 20260506082006 | 50 | 262 | 2.0 | 3.0 | 0.00 | 0.02 | 0.00 | 88 | 1017.9 |
| 20260506081307 | 50 | 270 | 2.0 | 2.0 | 0.00 | 0.02 | 0.00 | 88 | 1017.9 |
| 20260506080606 | 50 | 255 | 0.0 | 2.0 | 0.00 | 0.02 | 0.00 | 88 | 1017.8 |
| 20260506073106 | 50 | 225 | 2.0 | 4.0 | 0.00 | 0.02 | 0.00 | 88 | 1017.6 |
| 20260506072215 | 50 | 248 | 2.0 | 2.0 | 0.00 | 0.02 | 0.00 | 88 | 1017.6 |
| 20260506071515 | 50 | 202 | 1.0 | 4.0 | 0.00 | 0.02 | 0.00 | 88 | 1017.6 |
| 20260506070815 | 50 | 215 | 2.0 | 3.0 | 0.00 | 0.03 | 0.00 | 87 | 1017.5 |
| 20260506070115 | 50 | 225 | 2.0 | 3.0 | 0.00 | 0.03 | 0.00 | 88 | 1017.4 |
| 20260506062232 | 50 | 217 | 2.0 | 3.0 | 0.00 | 0.05 | 0.00 | 87 | 1017.3 |
| 20260506061532 | 50 | 240 | 1.0 | 3.0 | 0.00 | 0.05 | 0.00 | 87 | 1017.3 |
| 20260506060832 | 50 | 248 | 1.0 | 5.0 | 0.00 | 0.05 | 0.00 | 87 | 1017.2 |
| 20260506060137 | 50 | 225 | 2.0 | 4.0 | 0.00 | 0.05 | 0.00 | 87 | 1017.2 |
| 20260506051041 | 50 | 270 | 2.0 | 4.0 | 0.00 | 0.05 | 0.00 | 87 | 1016.9 |
| 20260506050150 | 50 | 240 | 1.0 | 4.0 | 0.00 | 0.05 | 0.00 | 87 | 1016.8 |
| 20260506044750 | 50 | 225 | 1.0 | 2.0 | 0.00 | 0.05 | 0.00 | 87 | 1016.7 |
| 20260506044050 | 50 | 235 | 1.0 | 2.0 | 0.00 | 0.05 | 0.00 | 87 | 1016.5 |
| 20260506043350 | 50 | 239 | 1.0 | 2.0 | 0.00 | 0.05 | 0.00 | 87 | 1016.5 |
| 20260506042650 | 50 | 225 | 1.0 | 3.0 | 0.00 | 0.05 | 0.00 | 87 | 1016.4 |
| 20260506041950 | 50 | 242 | 1.0 | 4.0 | 0.00 | 0.05 | 0.00 | 87 | 1016.3 |
| 20260506041250 | 50 | 238 | 1.0 | 2.0 | 0.00 | 0.05 | 0.00 | 87 | 1016.2 |
| 20260506040357 | 50 | 239 | 1.0 | 4.0 | 0.00 | 0.05 | 0.00 | 87 | 1016.1 |
| 20260506035506 | 50 | 265 | 3.0 | 6.0 | 0.00 | 0.05 | 0.00 | 87 | 1016.0 |
| 20260506034806 | 50 | 270 | 1.0 | 3.0 | 0.00 | 0.05 | 0.00 | 87 | 1015.9 |
| 20260506034105 | 50 | 225 | 1.0 | 3.0 | 0.00 | 0.05 | 0.00 | 87 | 1015.7 |
| 20260506033406 | 51 | 202 | 1.0 | 2.0 | 0.00 | 0.05 | 0.00 | 86 | 1015.6 |
| 20260506032705 | 51 | 218 | 1.0 | 4.0 | 0.00 | 0.05 | 0.00 | 86 | 1015.5 |
| 20260506031814 | 51 | 262 | 2.0 | 5.0 | 0.00 | 0.05 | 0.00 | 86 | 1015.3 |
| 20260506031114 | 51 | 232 | 2.0 | 5.0 | 0.00 | 0.05 | 0.00 | 86 | 1015.2 |
| 20260506030414 | 52 | 222 | 2.0 | 4.0 | 0.00 | 0.05 | 0.00 | 85 | 1015.0 |
| 20260506025714 | 52 | 265 | 3.0 | 4.0 | 0.00 | 0.05 | 0.00 | 85 | 1015.0 |
| 20260506024823 | 52 | 240 | 3.0 | 4.0 | 0.00 | 0.05 | 0.00 | 85 | 1015.0 |
| 20260506024123 | 52 | 230 | 2.0 | 6.0 | 0.00 | 0.05 | 0.00 | 85 | 1014.9 |
| 20260506023423 | 52 | 259 | 3.0 | 5.0 | 0.00 | 0.05 | 0.00 | 85 | 1014.8 |
| 20260506022723 | 53 | 250 | 3.0 | 6.0 | 0.00 | 0.05 | 0.00 | 84 | 1014.9 |
| 20260506022023 | 53 | 262 | 3.0 | 6.0 | 0.00 | 0.06 | 0.00 | 84 | 1014.9 |
| 20260506021131 | 53 | 245 | 3.0 | 6.0 | 0.00 | 0.06 | 0.00 | 84 | 1014.8 |
| 20260506020432 | 53 | 255 | 3.0 | 8.0 | 0.00 | 0.07 | 0.00 | 83 | 1014.8 |
| 20260506015732 | 54 | 260 | 3.0 | 8.0 | 0.00 | 0.08 | 0.00 | 82 | 1014.8 |
| 20260506015031 | 54 | 228 | 3.0 | 6.0 | 0.00 | 0.08 | 0.00 | 82 | 1014.7 |
| 20260506014333 | 54 | 262 | 4.0 | 12.0 | 0.00 | 0.08 | 0.00 | 81 | 1014.8 |
| 20260506013632 | 54 | 265 | 5.0 | 12.0 | 0.00 | 0.08 | 0.00 | 81 | 1014.7 |
| 20260506012931 | 55 | 225 | 3.0 | 6.0 | 0.00 | 0.09 | 0.00 | 81 | 1014.8 |
| 20260506012232 | 55 | 276 | 3.0 | 8.0 | 0.00 | 0.10 | 0.00 | 80 | 1014.7 |
| 20260506011531 | 55 | 270 | 4.0 | 7.0 | 0.00 | 0.10 | 0.00 | 80 | 1014.7 |
| 20260506010832 | 55 | 262 | 3.0 | 8.0 | 0.00 | 0.10 | 0.00 | 80 | 1014.6 |
| 20260506005940 | 56 | 260 | 4.0 | 10.0 | 0.00 | 0.10 | 0.00 | 80 | 1014.7 |
| 20260506005241 | 56 | 250 | 3.0 | 8.0 | 0.00 | 0.10 | 0.00 | 80 | 1014.7 |
| 20260506004540 | 56 | 262 | 4.0 | 6.0 | 0.00 | 0.12 | 0.00 | 80 | 1014.7 |
| 20260506003840 | 56 | 240 | 3.0 | 5.0 | 0.00 | 0.12 | 0.00 | 80 | 1014.6 |
| 20260506003140 | 56 | 218 | 3.0 | 11.0 | 0.00 | 0.12 | 0.00 | 80 | 1014.6 |
| 20260506002057 | 56 | 235 | 4.0 | 6.0 | 0.00 | 0.13 | 0.00 | 80 | 1014.6 |
| 20260506001358 | 56 | 235 | 3.0 | 7.0 | 0.00 | 0.14 | 0.00 | 79 | 1014.5 |
| 20260506000658 | 57 | 255 | 4.0 | 7.0 | 0.00 | 0.14 | 0.00 | 80 | 1014.5 |
| 20260505235957 | 57 | 239 | 3.0 | 7.0 | 0.00 | 0.15 | 0.00 | 79 | 1014.6 |
| 20260505235258 | 57 | 265 | 3.0 | 9.0 | 0.00 | 0.15 | 0.00 | 79 | 1014.6 |
| 20260505234557 | 57 | 242 | 4.0 | 9.0 | 0.00 | 0.16 | 0.00 | 79 | 1014.5 |
| 20260505233857 | 57 | 265 | 4.0 | 9.0 | 0.00 | 0.16 | 0.00 | 79 | 1014.5 |
| 20260505233158 | 57 | 262 | 3.0 | 5.0 | 0.00 | 0.16 | 0.00 | 79 | 1014.5 |
| 20260505232306 | 58 | 253 | 4.0 | 7.0 | 0.00 | 0.17 | 0.00 | 79 | 1014.5 |
| 20260505231606 | 58 | 238 | 3.0 | 8.0 | 0.00 | 0.18 | 0.00 | 79 | 1014.6 |
| 20260505230906 | 58 | 272 | 4.0 | 6.0 | 0.00 | 0.19 | 0.00 | 78 | 1014.6 |
| 20260505230206 | 58 | 235 | 4.0 | 6.0 | 0.00 | 0.19 | 0.00 | 78 | 1014.6 |
| 20260505225507 | 58 | 282 | 3.0 | 7.0 | 0.00 | 0.20 | 0.00 | 78 | 1014.6 |
| 20260505224807 | 59 | 253 | 5.0 | 7.0 | 0.00 | 0.21 | 0.00 | 78 | 1014.6 |
| 20260505224106 | 59 | 238 | 3.0 | 6.0 | 0.00 | 0.21 | 0.00 | 78 | 1014.6 |
| 20260505223215 | 59 | 272 | 3.0 | 6.0 | 0.00 | 0.22 | 0.00 | 77 | 1014.7 |
| 20260505222515 | 59 | 225 | 3.0 | 5.0 | 0.00 | 0.22 | 0.00 | 79 | 1014.7 |
| 20260505221815 | 60 | 205 | 3.0 | 4.0 | 0.00 | 0.22 | 0.00 | 78 | 1014.7 |
| 20260505221115 | 60 | 225 | 3.0 | 8.0 | 0.00 | 0.22 | 0.00 | 77 | 1014.8 |
| 20260505220224 | 60 | 298 | 2.0 | 11.0 | 0.00 | 0.22 | 0.00 | 77 | 1014.7 |
| 20260505215332 | 59 | 260 | 3.0 | 5.0 | 0.00 | 0.22 | 0.00 | 78 | 1014.8 |
| 20260505214632 | 60 | 231 | 3.0 | 5.0 | 0.00 | 0.22 | 0.00 | 78 | 1014.9 |
| 20260505213933 | 59 | 270 | 3.0 | 7.0 | 0.00 | 0.22 | 0.00 | 78 | 1014.9 |
| 20260505213233 | 59 | 280 | 3.0 | 7.0 | 0.00 | 0.22 | 0.00 | 78 | 1015.0 |
| 20260505212534 | 59 | 276 | 3.0 | 9.0 | 0.00 | 0.22 | 0.00 | 78 | 1015.0 |
| 20260505211832 | 59 | 267 | 4.0 | 9.0 | 0.00 | 0.22 | 0.00 | 78 | 1015.1 |
| 20260505211132 | 59 | 180 | 3.0 | 8.0 | 0.00 | 0.22 | 0.00 | 78 | 1015.0 |
| 20260505210433 | 60 | 309 | 2.0 | 4.0 | 0.00 | 0.22 | 0.00 | 78 | 1015.1 |
| 20260505205732 | 59 | 292 | 2.0 | 8.0 | 0.00 | 0.22 | 0.00 | 78 | 1015.1 |
| 20260505204842 | 59 | 299 | 3.0 | 6.0 | 0.00 | 0.22 | 0.00 | 78 | 1015.0 |
| 20260505204141 | 60 | 225 | 2.0 | 6.0 | 0.00 | 0.22 | 0.00 | 77 | 1015.1 |
| 20260505203441 | 61 | 219 | 3.0 | 7.0 | 0.00 | 0.22 | 0.00 | 77 | 1015.1 |
| 20260505202741 | 60 | 304 | 2.0 | 6.0 | 0.00 | 0.22 | 0.00 | 79 | 1015.1 |
| 20260505202041 | 62 | 222 | 3.0 | 5.0 | 0.00 | 0.22 | 0.00 | 76 | 1015.0 |
| 20260505201150 | 60 | 211 | 4.0 | 8.0 | 0.00 | 0.22 | 0.00 | 77 | 1015.1 |
| 20260505200449 | 60 | 250 | 2.0 | 5.0 | 0.00 | 0.22 | 0.00 | 78 | 1015.1 |
| 20260505195750 | 59 | 225 | 3.0 | 5.0 | 0.00 | 0.22 | 0.00 | 78 | 1015.2 |
| 20260505195049 | 59 | 231 | 3.0 | 9.0 | 0.00 | 0.22 | 0.00 | 78 | 1015.2 |
| 20260505194349 | 58 | 273 | 3.0 | 9.0 | 0.00 | 0.22 | 0.00 | 80 | 1015.2 |
| 20260505193649 | 58 | 228 | 3.0 | 8.0 | 0.00 | 0.22 | 0.00 | 79 | 1015.2 |
| 20260505192758 | 57 | 215 | 4.0 | 5.0 | 0.00 | 0.22 | 0.00 | 80 | 1015.3 |
| 20260505192058 | 56 | 236 | 3.0 | 8.0 | 0.00 | 0.22 | 0.00 | 83 | 1015.3 |
| 20260505191358 | 54 | 250 | 2.0 | 8.0 | 0.00 | 0.22 | 0.00 | 84 | 1015.3 |
| 20260505190658 | 54 | 205 | 2.0 | 5.0 | 0.00 | 0.22 | 0.00 | 84 | 1015.4 |
| 20260505185958 | 54 | 225 | 2.0 | 5.0 | 0.00 | 0.22 | 0.00 | 84 | 1015.4 |
| 20260505184914 | 54 | 253 | 2.0 | 3.0 | 0.00 | 0.22 | 0.00 | 85 | 1015.2 |
| 20260505184214 | 54 | 186 | 1.0 | 3.0 | 0.00 | 0.22 | 0.00 | 85 | 1015.3 |
| 20260505183514 | 54 | 169 | 1.0 | 3.0 | 0.00 | 0.22 | 0.00 | 85 | 1015.2 |
| 20260505182814 | 55 | 209 | 2.0 | 3.0 | 0.00 | 0.22 | 0.00 | 85 | 1015.2 |
| 20260505182114 | 54 | 259 | 2.0 | 3.0 | 0.00 | 0.22 | 0.00 | 84 | 1015.1 |
| 20260505181414 | 54 | 240 | 1.0 | 3.0 | 0.00 | 0.22 | 0.00 | 85 | 1015.0 |
| 20260505180714 | 54 | 259 | 1.0 | 4.0 | 0.00 | 0.22 | 0.00 | 84 | 1015.0 |
| 20260505175823 | 54 | 304 | 1.0 | 4.0 | 0.00 | 0.22 | 0.00 | 84 | 1014.9 |
| 20260505175122 | 54 | 228 | 2.0 | 3.0 | 0.00 | 0.22 | 0.00 | 85 | 1014.8 |
| 20260505174423 | 54 | 180 | 0.0 | 2.0 | 0.00 | 0.22 | 0.00 | 84 | 1014.7 |
| 20260505173531 | 55 | 290 | 2.0 | 3.0 | 0.00 | 0.22 | 0.00 | 84 | 1014.7 |
| 20260505172831 | 55 | 270 | 2.0 | 4.0 | 0.00 | 0.22 | 0.00 | 83 | 1014.6 |
| 20260505172131 | 54 | 264 | 2.0 | 5.0 | 0.00 | 0.22 | 0.00 | 84 | 1014.6 |
| 20260505171431 | 54 | 273 | 1.0 | 5.0 | 0.00 | 0.22 | 0.00 | 85 | 1014.6 |
| 20260505170731 | 54 | 273 | 2.0 | 5.0 | 0.00 | 0.22 | 0.00 | 84 | 1014.7 |
| 20260505170031 | 53 | 332 | 1.0 | 6.0 | 0.00 | 0.22 | 0.00 | 84 | 1014.6 |
| 20260505165331 | 54 | 202 | 1.0 | 3.0 | 0.00 | 0.22 | 0.00 | 85 | 1014.6 |
| 20260505164440 | 53 | 287 | 1.0 | 4.0 | 0.00 | 0.22 | 0.00 | 85 | 1014.6 |
| 20260505163740 | 53 | 289 | 1.0 | 4.0 | 0.00 | 0.22 | 0.00 | 86 | 1014.6 |
| 20260505163041 | 53 | 307 | 1.0 | 3.0 | 0.00 | 0.22 | 0.00 | 86 | 1014.5 |
| 20260505162148 | 53 | 315 | 0.0 | 3.0 | 0.00 | 0.22 | 0.00 | 86 | 1014.4 |
| 20260505161448 | 52 | 315 | 2.0 | 4.0 | 0.00 | 0.22 | 0.00 | 86 | 1014.3 |
| 20260505160748 | 52 | 315 | 1.0 | 3.0 | 0.00 | 0.22 | 0.00 | 87 | 1014.3 |
| 20260505153248 | 51 | 304 | 1.0 | 3.0 | 0.00 | 0.22 | 0.00 | 87 | 1014.2 |
| 20260505152548 | 51 | 323 | 1.0 | 3.0 | 0.00 | 0.22 | 0.00 | 87 | 1014.2 |
| 20260505151700 | 50 | 338 | 2.0 | 4.0 | 0.00 | 0.22 | 0.00 | 87 | 1014.1 |
| 20260505150957 | 50 | 332 | 1.0 | 3.0 | 0.00 | 0.22 | 0.00 | 87 | 1014.1 |
| 20260505150106 | 50 | 222 | 1.0 | 5.0 | 0.00 | 0.22 | 0.00 | 88 | 1013.9 |
| 20260505140315 | 50 | 325 | 1.0 | 5.0 | 0.00 | 0.22 | 0.00 | 88 | 1013.7 |
| 20260505124932 | 50 | 262 | 2.0 | 3.0 | 0.00 | 0.22 | 0.22 | 88 | 1013.2 |
| 20260505124039 | 50 | 308 | 1.0 | 3.0 | 0.00 | 0.22 | 0.22 | 88 | 1013.3 |
| 20260505123339 | 50 | 322 | 1.0 | 4.0 | 0.00 | 0.22 | 0.22 | 88 | 1013.2 |
| 20260505122639 | 50 | 310 | 0.0 | 2.0 | 0.00 | 0.22 | 0.22 | 88 | 1013.2 |
| 20260505121939 | 50 | 265 | 0.0 | 3.0 | 0.00 | 0.22 | 0.22 | 88 | 1013.2 |
| 20260505121240 | 50 | 315 | 2.0 | 3.0 | 0.00 | 0.22 | 0.22 | 88 | 1013.3 |
| 20260505120539 | 50 | 292 | 1.0 | 2.0 | 0.00 | 0.22 | 0.22 | 88 | 1013.2 |
| 20260505115839 | 50 | 258 | 2.0 | 4.0 | 0.00 | 0.22 | 0.22 | 87 | 1013.2 |
| 20260505115139 | 50 | 220 | 2.0 | 4.0 | 0.00 | 0.22 | 0.22 | 88 | 1013.3 |
| 20260505114248 | 50 | 255 | 2.0 | 4.0 | 0.00 | 0.22 | 0.22 | 88 | 1013.3 |
| 20260505113548 | 50 | 242 | 1.0 | 3.0 | 0.00 | 0.22 | 0.22 | 88 | 1013.2 |
| 20260505112848 | 50 | 295 | 1.0 | 4.0 | 0.00 | 0.22 | 0.22 | 88 | 1013.3 |
| 20260505112148 | 50 | 315 | 1.0 | 6.0 | 0.00 | 0.22 | 0.22 | 87 | 1013.4 |
| 20260505111448 | 50 | 245 | 3.0 | 6.0 | 0.00 | 0.22 | 0.22 | 88 | 1013.4 |
| 20260505110556 | 50 | 268 | 1.0 | 3.0 | 0.00 | 0.22 | 0.22 | 88 | 1013.5 |
| 20260505102206 | 50 | 325 | 1.0 | 3.0 | 0.01 | 0.22 | 0.22 | 87 | 1013.4 |
| 20260505101506 | 49 | 217 | 2.0 | 3.0 | 0.01 | 0.22 | 0.22 | 87 | 1013.3 |
| 20260505100806 | 49 | 245 | 1.0 | 3.0 | 0.01 | 0.22 | 0.22 | 87 | 1013.5 |
| 20260505100106 | 49 | 236 | 1.0 | 3.0 | 0.01 | 0.22 | 0.22 | 87 | 1013.4 |
| 20260505095406 | 49 | 295 | 1.0 | 4.0 | 0.01 | 0.22 | 0.22 | 87 | 1013.2 |
| 20260505094705 | 49 | 295 | 2.0 | 4.0 | 0.02 | 0.22 | 0.22 | 87 | 1013.1 |
| 20260505093814 | 49 | 295 | 1.0 | 6.0 | 0.02 | 0.22 | 0.22 | 87 | 1013.0 |
| 20260505093114 | 49 | 238 | 2.0 | 6.0 | 0.01 | 0.21 | 0.21 | 87 | 1012.9 |